• In Hungary
  • List of Countries
  • For 7 days
  • Water Temperature
  • Satellite Maps
  • Weather Map
  • News
  • Weather Widgets
  • user-avatar
    Login

    Hourly Weather Islamabad

    Today, 20 August, Sunday

    Time Temperature Precipitation Wind Pressure Humidity
    00:00 +30°C° 0 mm 3 mps 711 mmHg 60%
    01:00 +29°C° 0 mm 3 mps 711 mmHg 63%
    02:00 +29°C° 0 mm 3 mps 711 mmHg 66%
    03:00 +28°C° 0 mm 3 mps 711 mmHg 67%
    04:00 +28°C° 0 mm 3 mps 711 mmHg 69%
    05:00 +28°C° 0 mm 2 mps 711 mmHg 65%
    06:00 +29°C° 0 mm 2 mps 712 mmHg 62%
    07:00 +30°C° 0 mm 2 mps 712 mmHg 58%
    08:00 +31°C° 0 mm 2 mps 712 mmHg 54%
    09:00 +32°C° 0 mm 2 mps 712 mmHg 50%
    10:00 +35°C° 0 mm 2 mps 712 mmHg 47%
    11:00 +36°C° 0 mm 2 mps 712 mmHg 42%
    12:00 +37°C° 0 mm 2 mps 712 mmHg 40%
    13:00 +38°C° 0 mm 2 mps 711 mmHg 38%
    14:00 +38°C° 0 mm 2 mps 710 mmHg 36%
    15:00 +37°C° 0 mm 1 mps 710 mmHg 35%
    16:00 +37°C° 0 mm 1 mps 710 mmHg 35%
    17:00 +37°C° 0 mm 1 mps 709 mmHg 35%
    18:00 +36°C° 0 mm 1 mps 709 mmHg 38%
    19:00 +34°C° 0 mm 1 mps 709 mmHg 41%
    20:00 +33°C° 0 mm 1 mps 709 mmHg 44%
    21:00 +32°C° 0 mm 2 mps 709 mmHg 46%
    22:00 +32°C° 0 mm 2 mps 709 mmHg 48%
    23:00 +31°C° 0 mm 3 mps 709 mmHg 49%

    Tomorrow, 21 August, Monday

    Time Temperature Precipitation Wind Pressure Humidity
    00:00 +31°C° 0 mm 3 mps 709 mmHg 50%
    01:00 +30°C° 0 mm 3 mps 709 mmHg 52%
    02:00 +30°C° 0 mm 3 mps 709 mmHg 53%
    03:00 +30°C° 0.2 mm 3 mps 709 mmHg 55%
    04:00 +29°C° 0.2 mm 3 mps 709 mmHg 56%
    05:00 +29°C° 0.2 mm 3 mps 709 mmHg 58%
    06:00 +30°C° 0 mm 3 mps 709 mmHg 56%
    07:00 +31°C° 0 mm 3 mps 710 mmHg 54%
    08:00 +33°C° 0 mm 3 mps 710 mmHg 52%
    09:00 +34°C° 0 mm 3 mps 710 mmHg 49%
    10:00 +36°C° 0 mm 2 mps 710 mmHg 46%
    11:00 +37°C° 0 mm 2 mps 710 mmHg 43%
    12:00 +38°C° 0 mm 2 mps 710 mmHg 41%
    13:00 +38°C° 0 mm 2 mps 709 mmHg 38%
    14:00 +39°C° 0 mm 1 mps 709 mmHg 36%
    15:00 +39°C° 0 mm 1 mps 708 mmHg 36%
    16:00 +39°C° 0 mm 1 mps 708 mmHg 35%
    17:00 +39°C° 0 mm 1 mps 708 mmHg 34%
    18:00 +38°C° 0 mm 2 mps 708 mmHg 38%
    19:00 +36°C° 0 mm 2 mps 708 mmHg 41%
    20:00 +35°C° 0 mm 2 mps 708 mmHg 44%
    21:00 +34°C° 0 mm 2 mps 708 mmHg 46%
    22:00 +33°C° 0 mm 3 mps 708 mmHg 48%
    23:00 +33°C° 0 mm 3 mps 708 mmHg 49%

    Day after tomorrow, 22 August, Tuesday

    Time Temperature Precipitation Wind Pressure Humidity
    00:00 +31°C° 0 mm 3 mps 708 mmHg 50%
    01:00 +31°C° 0 mm 3 mps 708 mmHg 52%
    02:00 +31°C° 0 mm 3 mps 709 mmHg 53%
    03:00 +30°C° 0.4 mm 3 mps 709 mmHg 55%
    04:00 +29°C° 0.4 mm 3 mps 709 mmHg 57%
    05:00 +29°C° 0.4 mm 3 mps 709 mmHg 59%
    06:00 +30°C° 0 mm 3 mps 709 mmHg 57%
    07:00 +31°C° 0 mm 3 mps 710 mmHg 55%
    08:00 +33°C° 0 mm 3 mps 710 mmHg 53%
    09:00 +34°C° 0 mm 3 mps 710 mmHg 50%
    10:00 +36°C° 0 mm 2 mps 710 mmHg 47%
    11:00 +37°C° 0 mm 2 mps 710 mmHg 45%
    12:00 +38°C° 0 mm 2 mps 710 mmHg 42%
    13:00 +39°C° 0 mm 2 mps 709 mmHg 39%
    14:00 +40°C° 0 mm 1 mps 709 mmHg 36%
    15:00 +39°C° 0 mm 1 mps 709 mmHg 36%
    16:00 +39°C° 0 mm 1 mps 708 mmHg 36%
    17:00 +39°C° 0 mm 1 mps 708 mmHg 36%
    18:00 +37°C° 0 mm 1 mps 708 mmHg 39%
    19:00 +36°C° 0 mm 2 mps 708 mmHg 42%
    20:00 +35°C° 0 mm 2 mps 708 mmHg 45%
    21:00 +34°C° 0 mm 2 mps 709 mmHg 46%
    22:00 +34°C° 0 mm 3 mps 709 mmHg 47%
    23:00 +33°C° 0 mm 3 mps 709 mmHg 49%

    23 August, Wednesday

    Time Temperature Precipitation Wind Pressure Humidity
    00:00 +33°C° 0.3 mm 3 mps 709 mmHg 51%
    01:00 +31°C° 0.3 mm 3 mps 709 mmHg 53%
    02:00 +30°C° 0.3 mm 4 mps 709 mmHg 55%
    03:00 +30°C° 0.7 mm 3 mps 709 mmHg 58%
    04:00 +29°C° 0.7 mm 3 mps 709 mmHg 61%
    05:00 +28°C° 0.7 mm 3 mps 709 mmHg 63%
    06:00 +30°C° 0.1 mm 3 mps 710 mmHg 60%
    07:00 +31°C° 0.1 mm 3 mps 710 mmHg 56%
    08:00 +32°C° 0.1 mm 2 mps 711 mmHg 53%
    09:00 +35°C° 0 mm 2 mps 711 mmHg 50%
    10:00 +36°C° 0 mm 2 mps 711 mmHg 48%
    11:00 +37°C° 0 mm 2 mps 711 mmHg 45%
    12:00 +38°C° 0.1 mm 2 mps 711 mmHg 43%
    13:00 +38°C° 0.1 mm 2 mps 710 mmHg 41%
    14:00 +39°C° 0.1 mm 1 mps 710 mmHg 39%
    15:00 +39°C° 0 mm 1 mps 709 mmHg 39%
    16:00 +39°C° 0 mm 1 mps 709 mmHg 39%
    17:00 +39°C° 0 mm 1 mps 709 mmHg 38%
    18:00 +37°C° 0 mm 1 mps 709 mmHg 42%
    19:00 +35°C° 0 mm 1 mps 709 mmHg 45%
    20:00 +34°C° 0 mm 1 mps 710 mmHg 48%
    21:00 +35°C° 0.1 mm 2 mps 710 mmHg 49%
    22:00 +34°C° 0.1 mm 3 mps 710 mmHg 51%
    23:00 +33°C° 0.1 mm 3 mps 710 mmHg 53%

    24 August, Thursday

    Time Temperature Precipitation Wind Pressure Humidity
    00:00 +31°C° 1 mm 3 mps 710 mmHg 58%
    01:00 +30°C° 1 mm 3 mps 709 mmHg 64%
    02:00 +29°C° 1 mm 3 mps 709 mmHg 69%
    03:00 +28°C° 0.7 mm 3 mps 709 mmHg 69%
    04:00 +28°C° 0.7 mm 3 mps 709 mmHg 70%
    05:00 +28°C° 0.7 mm 3 mps 709 mmHg 70%
    06:00 +29°C° 0.4 mm 3 mps 710 mmHg 67%
    07:00 +30°C° 0.4 mm 3 mps 710 mmHg 64%
    08:00 +31°C° 0.4 mm 2 mps 710 mmHg 60%
    09:00 +32°C° 0.1 mm 2 mps 710 mmHg 57%
    10:00 +35°C° 0.1 mm 3 mps 711 mmHg 54%
    11:00 +36°C° 0.1 mm 3 mps 711 mmHg 50%
    12:00 +37°C° 0.1 mm 3 mps 710 mmHg 48%
    13:00 +37°C° 0.1 mm 2 mps 710 mmHg 46%
    14:00 +38°C° 0.1 mm 2 mps 709 mmHg 43%
    15:00 +38°C° 0.2 mm 2 mps 709 mmHg 44%
    16:00 +37°C° 0.2 mm 1 mps 709 mmHg 44%
    17:00 +37°C° 0.2 mm 1 mps 708 mmHg 44%
    18:00 +37°C° 0.3 mm 2 mps 708 mmHg 48%
    19:00 +35°C° 0.3 mm 2 mps 709 mmHg 52%
    20:00 +34°C° 0.3 mm 3 mps 709 mmHg 56%
    21:00 +33°C° 0.4 mm 3 mps 709 mmHg 58%
    22:00 +31°C° 0.4 mm 3 mps 709 mmHg 61%
    23:00 +30°C° 0.4 mm 3 mps 709 mmHg 64%

    25 August, Friday

    Time Temperature Precipitation Wind Pressure Humidity
    00:00 +29°C° 2.4 mm 3 mps 708 mmHg 66%
    01:00 +28°C° 2.4 mm 3 mps 708 mmHg 68%
    02:00 +28°C° 2.4 mm 3 mps 708 mmHg 70%
    03:00 +28°C° 0.7 mm 3 mps 708 mmHg 69%
    04:00 +27°C° 0.7 mm 3 mps 708 mmHg 69%
    05:00 +27°C° 0.7 mm 3 mps 708 mmHg 68%
    06:00 +28°C° 1.2 mm 3 mps 708 mmHg 65%
    07:00 +29°C° 1.2 mm 2 mps 709 mmHg 63%
    08:00 +30°C° 1.2 mm 2 mps 709 mmHg 60%
    09:00 +31°C° 0.3 mm 2 mps 709 mmHg 57%
    10:00 +33°C° 0.3 mm 3 mps 709 mmHg 54%
    11:00 +34°C° 0.3 mm 3 mps 709 mmHg 51%
    12:00 +35°C° 0.3 mm 3 mps 708 mmHg 50%
    13:00 +35°C° 0.3 mm 3 mps 708 mmHg 49%
    14:00 +36°C° 0.3 mm 3 mps 707 mmHg 49%
    15:00 +36°C° 0.2 mm 3 mps 707 mmHg 49%
    16:00 +36°C° 0.2 mm 3 mps 707 mmHg 50%
    17:00 +35°C° 0.2 mm 3 mps 707 mmHg 50%
    18:00 +34°C° 0 mm 2 mps 707 mmHg 55%
    19:00 +32°C° 0 mm 2 mps 707 mmHg 60%
    20:00 +30°C° 0 mm 2 mps 707 mmHg 64%
    21:00 +30°C° 0 mm 2 mps 707 mmHg 65%
    22:00 +29°C° 0 mm 2 mps 707 mmHg 66%
    23:00 +29°C° 0 mm 2 mps 707 mmHg 67%
    Show more